CFTIW CZJN-CYAV

Flight info

Callsign CFTIW
Flight time 1h 13m
Altitude 9000
Route DCT
Aircraft BE58/L-SDE3/1200

Departure

Time 2026-05-06 12:32
Airport Swan River Airport (CZJN)

Arrival

Time 2026-05-06 13:45
Airport Winnipeg / St. Andrews Airport (CYAV)
Time Latitude Longitude Altitude Speed Heading
2026-05-06 12:19 52.11690 -101.23604 1100 ft 0 kts 295°
2026-05-06 12:27 52.11689 -101.23599 1103 ft 3 kts 295°
2026-05-06 12:27 52.11681 -101.23572 1100 ft 3 kts 295°
2026-05-06 12:28 52.11678 -101.23562 1100 ft 0 kts 295°
2026-05-06 12:30 52.11696 -101.23575 1100 ft 8 kts 354°
2026-05-06 12:30 52.11752 -101.23587 1101 ft 7 kts 347°
2026-05-06 12:31 52.11778 -101.23628 1101 ft 6 kts 271°
2026-05-06 12:31 52.11786 -101.23739 1100 ft 11 kts 317°
2026-05-06 12:31 52.11864 -101.23691 1099 ft 27 kts 29°
2026-05-06 12:31 52.12259 -101.23319 1106 ft 105 kts 29°
2026-05-06 12:32 52.12947 -101.22618 1542 ft 118 kts 35°
2026-05-06 12:32 52.13617 -101.21850 2200 ft 118 kts 35°
2026-05-06 12:32 52.14222 -101.20893 2897 ft 120 kts 64°
2026-05-06 12:32 52.14188 -101.19544 3525 ft 134 kts 122°
2026-05-06 12:33 52.13465 -101.18545 4071 ft 141 kts 154°
2026-05-06 12:33 52.12632 -101.17772 4763 ft 138 kts 146°
2026-05-06 12:33 52.11811 -101.16949 5340 ft 139 kts 149°
2026-05-06 12:33 52.10999 -101.16104 5930 ft 138 kts 147°
2026-05-06 12:34 52.10189 -101.15264 6529 ft 137 kts 147°
2026-05-06 12:34 52.09399 -101.14453 7088 ft 131 kts 147°
2026-05-06 12:34 52.08650 -101.13681 7645 ft 124 kts 147°
2026-05-06 12:34 52.07956 -101.12934 8171 ft 119 kts 140°
2026-05-06 12:35 52.07286 -101.12074 8577 ft 125 kts 141°
2026-05-06 12:35 52.06615 -101.11182 8996 ft 130 kts 131°
2026-05-06 12:35 52.05981 -101.09870 9023 ft 164 kts 123°
2026-05-06 12:35 52.05256 -101.08289 9023 ft 183 kts 124°
2026-05-06 12:36 52.04479 -101.06583 9013 ft 192 kts 124°
2026-05-06 12:36 52.03675 -101.04807 8990 ft 197 kts 124°
2026-05-06 12:36 52.02855 -101.03004 8988 ft 199 kts 124°
2026-05-06 12:36 52.02185 -101.01537 8988 ft 199 kts 124°
2026-05-06 12:37 52.01974 -101.01075 8991 ft 199 kts 124°
2026-05-06 12:37 52.01149 -100.99262 8994 ft 200 kts 124°
2026-05-06 12:37 52.00322 -100.97451 8992 ft 200 kts 124°
2026-05-06 12:37 51.99493 -100.95640 8992 ft 200 kts 124°
2026-05-06 12:38 51.98665 -100.93832 8999 ft 200 kts 124°
2026-05-06 12:38 51.97836 -100.92022 8999 ft 200 kts 124°
2026-05-06 12:38 51.97007 -100.90212 8996 ft 200 kts 124°
2026-05-06 12:38 51.96178 -100.88403 8997 ft 200 kts 124°
2026-05-06 12:39 51.95347 -100.86596 8996 ft 200 kts 124°
2026-05-06 12:39 51.94518 -100.84789 8998 ft 199 kts 124°
2026-05-06 12:39 51.93691 -100.82988 8995 ft 200 kts 124°
2026-05-06 12:39 51.92862 -100.81187 8995 ft 199 kts 124°
2026-05-06 12:40 51.92032 -100.79387 8995 ft 199 kts 124°
2026-05-06 12:40 51.91205 -100.77587 8992 ft 199 kts 124°
2026-05-06 12:40 51.90387 -100.75812 8992 ft 199 kts 124°
2026-05-06 12:40 51.89557 -100.74016 8993 ft 199 kts 124°
2026-05-06 12:41 51.88729 -100.72220 8994 ft 199 kts 124°
2026-05-06 12:41 51.87902 -100.70428 8993 ft 199 kts 124°
2026-05-06 12:41 51.87074 -100.68637 8992 ft 199 kts 124°
2026-05-06 12:41 51.86244 -100.66842 8994 ft 199 kts 124°
2026-05-06 12:42 51.85413 -100.65047 8998 ft 199 kts 124°
2026-05-06 12:42 51.84581 -100.63250 8997 ft 199 kts 124°
2026-05-06 12:42 51.83749 -100.61457 8997 ft 199 kts 124°
2026-05-06 12:42 51.82919 -100.59666 8998 ft 200 kts 124°
2026-05-06 12:43 51.82085 -100.57871 8997 ft 200 kts 124°
2026-05-06 12:43 51.81251 -100.56074 8998 ft 200 kts 124°
2026-05-06 12:43 51.80418 -100.54281 8999 ft 200 kts 124°
2026-05-06 12:43 51.79583 -100.52486 8992 ft 200 kts 124°
2026-05-06 12:44 51.78748 -100.50693 8996 ft 200 kts 124°
2026-05-06 12:44 51.77910 -100.48894 8994 ft 200 kts 124°
2026-05-06 12:44 51.77077 -100.47105 8994 ft 199 kts 124°
2026-05-06 12:44 51.76243 -100.45317 8994 ft 199 kts 124°
2026-05-06 12:45 51.75409 -100.43529 8996 ft 200 kts 124°
2026-05-06 12:45 51.74572 -100.41739 8994 ft 199 kts 124°
2026-05-06 12:45 51.72912 -100.38188 8998 ft 200 kts 124°
2026-05-06 12:46 51.72074 -100.36396 8992 ft 200 kts 124°
2026-05-06 12:46 51.71237 -100.34610 8995 ft 200 kts 124°
2026-05-06 12:46 51.70399 -100.32822 8990 ft 200 kts 124°
2026-05-06 12:46 51.69562 -100.31037 8992 ft 200 kts 124°
2026-05-06 12:47 51.68724 -100.29252 8992 ft 200 kts 124°
2026-05-06 12:47 51.67886 -100.27466 8992 ft 200 kts 124°
2026-05-06 12:47 51.67045 -100.25679 8992 ft 200 kts 124°
2026-05-06 12:47 51.66207 -100.23897 8994 ft 200 kts 124°
2026-05-06 12:48 51.65368 -100.22113 8993 ft 200 kts 124°
2026-05-06 12:48 51.64530 -100.20334 8994 ft 199 kts 124°
2026-05-06 12:48 51.63693 -100.18556 8992 ft 199 kts 124°
2026-05-06 12:48 51.62854 -100.16778 8993 ft 199 kts 124°
2026-05-06 12:49 51.62014 -100.14999 8992 ft 199 kts 124°
2026-05-06 12:49 51.61176 -100.13224 8994 ft 199 kts 124°
2026-05-06 12:49 51.60337 -100.11448 8994 ft 199 kts 124°
2026-05-06 12:49 51.59497 -100.09672 8993 ft 199 kts 124°
2026-05-06 12:50 51.58657 -100.07896 8994 ft 199 kts 124°
2026-05-06 12:50 51.57816 -100.06120 8994 ft 199 kts 124°
2026-05-06 12:50 51.56975 -100.04345 8992 ft 199 kts 124°
2026-05-06 12:50 51.56136 -100.02576 8996 ft 199 kts 124°
2026-05-06 12:51 51.55294 -100.00801 8994 ft 199 kts 124°
2026-05-06 12:51 51.54464 -99.99054 8997 ft 199 kts 124°
2026-05-06 12:51 51.53622 -99.97282 8997 ft 200 kts 124°
2026-05-06 12:51 51.52780 -99.95512 8995 ft 200 kts 124°
2026-05-06 12:52 51.51937 -99.93741 8994 ft 200 kts 124°
2026-05-06 12:52 51.51093 -99.91967 8994 ft 200 kts 124°
2026-05-06 12:52 51.50249 -99.90196 8996 ft 200 kts 124°
2026-05-06 12:52 51.49405 -99.88426 8995 ft 200 kts 124°
2026-05-06 12:53 51.48561 -99.86657 8999 ft 200 kts 124°
2026-05-06 12:53 51.47716 -99.84886 8997 ft 200 kts 124°
2026-05-06 12:53 51.46873 -99.83121 8996 ft 200 kts 124°
2026-05-06 12:53 51.46025 -99.81350 8997 ft 200 kts 124°
2026-05-06 12:54 51.45179 -99.79581 8996 ft 200 kts 124°
2026-05-06 12:54 51.44332 -99.77811 8997 ft 200 kts 124°
2026-05-06 12:54 51.43485 -99.76044 8995 ft 200 kts 124°
2026-05-06 12:54 51.42637 -99.74274 8997 ft 200 kts 124°
2026-05-06 12:55 51.41790 -99.72510 8999 ft 200 kts 124°
2026-05-06 12:55 51.40943 -99.70743 8997 ft 200 kts 124°
2026-05-06 12:55 51.40093 -99.68978 8996 ft 200 kts 124°
2026-05-06 12:55 51.39244 -99.67209 8996 ft 200 kts 124°
2026-05-06 12:56 51.38404 -99.65463 8998 ft 200 kts 124°
2026-05-06 12:56 51.37553 -99.63696 9001 ft 200 kts 124°
2026-05-06 12:56 51.36703 -99.61931 8997 ft 200 kts 124°
2026-05-06 12:56 51.35842 -99.60144 8994 ft 200 kts 124°
2026-05-06 12:57 51.34989 -99.58377 9002 ft 201 kts 124°
2026-05-06 12:57 51.34164 -99.56614 9001 ft 200 kts 122°
2026-05-06 12:57 51.33361 -99.54795 8999 ft 200 kts 122°
2026-05-06 12:57 51.32553 -99.52984 8995 ft 200 kts 122°
2026-05-06 12:58 51.31740 -99.51179 8999 ft 200 kts 122°
2026-05-06 12:58 51.30926 -99.49376 8997 ft 200 kts 122°
2026-05-06 12:58 51.30111 -99.47570 8994 ft 200 kts 122°
2026-05-06 12:58 51.29296 -99.45765 8998 ft 200 kts 122°
2026-05-06 12:59 51.28483 -99.43964 8996 ft 200 kts 122°
2026-05-06 12:59 51.27667 -99.42159 9000 ft 200 kts 122°
2026-05-06 12:59 51.26851 -99.40356 8994 ft 200 kts 122°
2026-05-06 12:59 51.26036 -99.38553 9001 ft 200 kts 123°
2026-05-06 13:00 51.25220 -99.36753 8996 ft 200 kts 123°
2026-05-06 13:00 51.24403 -99.34953 8999 ft 200 kts 123°
2026-05-06 13:00 51.23586 -99.33150 8997 ft 200 kts 122°
2026-05-06 13:00 51.22768 -99.31348 8993 ft 201 kts 123°
2026-05-06 13:01 51.21950 -99.29549 8992 ft 200 kts 123°
2026-05-06 13:01 51.21132 -99.27748 8991 ft 200 kts 123°
2026-05-06 13:01 51.20311 -99.25942 8991 ft 200 kts 123°
2026-05-06 13:01 51.19492 -99.24145 8991 ft 200 kts 123°
2026-05-06 13:02 51.18684 -99.22370 8995 ft 200 kts 123°
2026-05-06 13:02 51.17866 -99.20576 8992 ft 200 kts 123°
2026-05-06 13:02 51.17036 -99.18756 8991 ft 200 kts 123°
2026-05-06 13:02 51.16228 -99.16986 8995 ft 200 kts 123°
2026-05-06 13:03 51.15409 -99.15193 8993 ft 200 kts 123°
2026-05-06 13:03 51.14590 -99.13400 8993 ft 200 kts 123°
2026-05-06 13:03 51.13770 -99.11609 8995 ft 200 kts 123°
2026-05-06 13:03 51.12951 -99.09820 8993 ft 200 kts 123°
2026-05-06 13:04 51.12130 -99.08028 8990 ft 200 kts 123°
2026-05-06 13:04 51.11310 -99.06236 8990 ft 200 kts 123°
2026-05-06 13:04 51.10489 -99.04447 8993 ft 200 kts 123°
2026-05-06 13:04 51.09667 -99.02656 8992 ft 200 kts 123°
2026-05-06 13:05 51.08846 -99.00870 8989 ft 200 kts 123°
2026-05-06 13:05 51.08024 -98.99080 8990 ft 200 kts 123°
2026-05-06 13:05 51.07201 -98.97290 8988 ft 200 kts 123°
2026-05-06 13:05 51.06375 -98.95497 8986 ft 200 kts 123°
2026-05-06 13:06 51.05553 -98.93712 8990 ft 200 kts 123°
2026-05-06 13:06 51.04727 -98.91920 8988 ft 200 kts 123°
2026-05-06 13:06 51.03905 -98.90138 8987 ft 200 kts 123°
2026-05-06 13:06 51.03081 -98.88350 8989 ft 200 kts 123°
2026-05-06 13:07 51.02257 -98.86566 8988 ft 200 kts 123°
2026-05-06 13:07 51.01444 -98.84809 8986 ft 200 kts 123°
2026-05-06 13:07 51.00619 -98.83024 8987 ft 201 kts 123°
2026-05-06 13:07 50.99793 -98.81239 8990 ft 200 kts 123°
2026-05-06 13:08 50.98968 -98.79457 8988 ft 200 kts 123°
2026-05-06 13:08 50.98142 -98.77675 8990 ft 200 kts 123°
2026-05-06 13:08 50.97317 -98.75896 8986 ft 200 kts 123°
2026-05-06 13:08 50.96492 -98.74118 8986 ft 200 kts 123°
2026-05-06 13:09 50.95665 -98.72337 8985 ft 200 kts 123°
2026-05-06 13:09 50.94842 -98.70565 8985 ft 200 kts 123°
2026-05-06 13:09 50.94013 -98.68785 8982 ft 200 kts 123°
2026-05-06 13:09 50.93188 -98.67010 8983 ft 200 kts 123°
2026-05-06 13:10 50.92361 -98.65235 8981 ft 200 kts 123°
2026-05-06 13:10 50.91533 -98.63457 8981 ft 200 kts 124°
2026-05-06 13:10 50.90707 -98.61686 8979 ft 200 kts 124°
2026-05-06 13:10 50.89880 -98.59912 8980 ft 200 kts 124°
2026-05-06 13:11 50.89052 -98.58140 8981 ft 200 kts 124°
2026-05-06 13:11 50.88224 -98.56367 8981 ft 200 kts 124°
2026-05-06 13:11 50.87398 -98.54600 8981 ft 200 kts 124°
2026-05-06 13:11 50.86579 -98.52849 8980 ft 200 kts 124°
2026-05-06 13:12 50.85751 -98.51082 8978 ft 200 kts 124°
2026-05-06 13:12 50.84923 -98.49314 8982 ft 200 kts 124°
2026-05-06 13:12 50.84084 -98.47524 8981 ft 200 kts 124°
2026-05-06 13:12 50.83264 -98.45776 8975 ft 200 kts 124°
2026-05-06 13:13 50.82434 -98.44007 8978 ft 200 kts 124°
2026-05-06 13:13 50.81603 -98.42239 8980 ft 200 kts 124°
2026-05-06 13:13 50.80774 -98.40475 8981 ft 200 kts 124°
2026-05-06 13:13 50.79943 -98.38708 8982 ft 200 kts 124°
2026-05-06 13:14 50.79111 -98.36941 8980 ft 200 kts 124°
2026-05-06 13:14 50.78280 -98.35176 8977 ft 200 kts 124°
2026-05-06 13:14 50.77448 -98.33412 8980 ft 200 kts 124°
2026-05-06 13:14 50.76614 -98.31644 8978 ft 200 kts 124°
2026-05-06 13:15 50.75782 -98.29882 8976 ft 200 kts 124°
2026-05-06 13:15 50.74949 -98.28118 8976 ft 200 kts 124°
2026-05-06 13:15 50.74116 -98.26354 8977 ft 200 kts 124°
2026-05-06 13:15 50.73282 -98.24592 8977 ft 200 kts 124°
2026-05-06 13:16 50.72448 -98.22830 8975 ft 200 kts 124°
2026-05-06 13:16 50.71617 -98.21075 8977 ft 200 kts 124°
2026-05-06 13:16 50.70786 -98.19320 8977 ft 200 kts 125°
2026-05-06 13:16 50.69953 -98.17564 8973 ft 200 kts 124°
2026-05-06 13:17 50.69120 -98.15808 8975 ft 200 kts 125°
2026-05-06 13:17 50.68287 -98.14055 8975 ft 200 kts 125°
2026-05-06 13:17 50.67735 -98.12893 8972 ft 200 kts 125°
2026-05-06 13:17 50.66901 -98.11139 8970 ft 200 kts 125°
2026-05-06 13:18 50.66067 -98.09385 8973 ft 200 kts 125°
2026-05-06 13:18 50.65234 -98.07635 8966 ft 200 kts 125°
2026-05-06 13:18 50.64399 -98.05882 8968 ft 200 kts 125°
2026-05-06 13:18 50.63565 -98.04133 8968 ft 200 kts 125°
2026-05-06 13:19 50.62731 -98.02382 8967 ft 200 kts 125°
2026-05-06 13:19 50.61896 -98.00634 8970 ft 200 kts 125°
2026-05-06 13:19 50.61062 -97.98888 8968 ft 199 kts 125°
2026-05-06 13:19 50.60229 -97.97145 8970 ft 199 kts 125°
2026-05-06 13:20 50.59393 -97.95397 8966 ft 199 kts 125°
2026-05-06 13:20 50.58559 -97.93653 8965 ft 200 kts 125°
2026-05-06 13:20 50.57725 -97.91912 8966 ft 200 kts 125°
2026-05-06 13:20 50.56900 -97.90191 8968 ft 200 kts 125°
2026-05-06 13:21 50.56064 -97.88447 8965 ft 200 kts 125°
2026-05-06 13:21 50.55228 -97.86705 8963 ft 200 kts 125°
2026-05-06 13:21 50.54381 -97.84941 8962 ft 199 kts 125°
2026-05-06 13:21 50.53556 -97.83225 8965 ft 199 kts 126°
2026-05-06 13:22 50.52719 -97.81484 8962 ft 199 kts 126°
2026-05-06 13:22 50.51883 -97.79744 8962 ft 200 kts 126°
2026-05-06 13:22 50.51045 -97.78006 8961 ft 199 kts 126°
2026-05-06 13:22 50.50207 -97.76267 8963 ft 199 kts 126°
2026-05-06 13:23 50.49370 -97.74528 8959 ft 200 kts 126°
2026-05-06 13:23 50.48531 -97.72789 8961 ft 200 kts 126°
2026-05-06 13:23 50.47692 -97.71052 8962 ft 200 kts 126°
2026-05-06 13:23 50.46853 -97.69315 8962 ft 200 kts 126°
2026-05-06 13:24 50.46015 -97.67580 8957 ft 200 kts 126°
2026-05-06 13:24 50.45175 -97.65846 8956 ft 200 kts 126°
2026-05-06 13:24 50.44336 -97.64110 8956 ft 199 kts 126°
2026-05-06 13:24 50.43497 -97.62379 8955 ft 199 kts 126°
2026-05-06 13:25 50.42658 -97.60648 8953 ft 199 kts 126°
2026-05-06 13:25 50.41819 -97.58917 8955 ft 199 kts 126°
2026-05-06 13:25 50.40979 -97.57186 8952 ft 199 kts 126°
2026-05-06 13:25 50.40138 -97.55455 8948 ft 199 kts 126°
2026-05-06 13:26 50.39299 -97.53728 8951 ft 199 kts 126°
2026-05-06 13:26 50.38459 -97.52000 8953 ft 199 kts 126°
2026-05-06 13:26 50.37619 -97.50273 8948 ft 199 kts 126°
2026-05-06 13:26 50.36780 -97.48551 8950 ft 199 kts 126°
2026-05-06 13:27 50.35940 -97.46826 8949 ft 199 kts 126°
2026-05-06 13:27 50.35100 -97.45104 8951 ft 199 kts 126°
2026-05-06 13:27 50.34260 -97.43381 8953 ft 199 kts 126°
2026-05-06 13:27 50.33420 -97.41661 8947 ft 199 kts 126°
2026-05-06 13:28 50.32579 -97.39941 8949 ft 199 kts 126°
2026-05-06 13:28 50.31738 -97.38219 8951 ft 199 kts 126°
2026-05-06 13:28 50.30908 -97.36522 8951 ft 199 kts 126°
2026-05-06 13:28 50.30068 -97.34806 8950 ft 199 kts 126°
2026-05-06 13:29 50.29227 -97.33089 8949 ft 199 kts 126°
2026-05-06 13:29 50.28387 -97.31375 8953 ft 199 kts 126°
2026-05-06 13:29 50.27547 -97.29661 8951 ft 199 kts 126°
2026-05-06 13:29 50.26705 -97.27945 8952 ft 199 kts 126°
2026-05-06 13:30 50.25863 -97.26231 8949 ft 199 kts 126°
2026-05-06 13:30 50.25021 -97.24517 8952 ft 199 kts 126°
2026-05-06 13:30 50.24178 -97.22803 8953 ft 199 kts 126°
2026-05-06 13:30 50.23337 -97.21093 8951 ft 198 kts 126°
2026-05-06 13:31 50.22497 -97.19387 8947 ft 198 kts 126°
2026-05-06 13:31 50.21655 -97.17679 8948 ft 198 kts 126°
2026-05-06 13:31 50.20813 -97.15971 8946 ft 198 kts 126°
2026-05-06 13:31 50.19974 -97.14268 8947 ft 198 kts 126°
2026-05-06 13:32 50.19131 -97.12563 8947 ft 198 kts 126°
2026-05-06 13:32 50.18289 -97.10857 8948 ft 198 kts 126°
2026-05-06 13:32 50.17449 -97.09157 8945 ft 198 kts 126°
2026-05-06 13:32 50.16608 -97.07456 8945 ft 198 kts 126°
2026-05-06 13:33 50.15755 -97.05733 8796 ft 205 kts 126°
2026-05-06 13:33 50.14868 -97.03946 8506 ft 211 kts 126°
2026-05-06 13:33 50.13993 -97.02185 8233 ft 201 kts 126°
2026-05-06 13:33 50.13149 -97.00478 7998 ft 197 kts 126°
2026-05-06 13:34 50.12330 -96.98824 7762 ft 193 kts 126°
2026-05-06 13:34 50.11514 -96.97179 7525 ft 191 kts 126°
2026-05-06 13:34 50.10700 -96.95540 7276 ft 191 kts 126°
2026-05-06 13:34 50.09887 -96.93905 7025 ft 191 kts 126°
2026-05-06 13:35 50.09071 -96.92264 6777 ft 192 kts 126°
2026-05-06 13:35 50.08254 -96.90623 6519 ft 192 kts 126°
2026-05-06 13:35 50.07435 -96.88980 6251 ft 192 kts 126°
2026-05-06 13:35 50.06618 -96.87341 6002 ft 191 kts 126°
2026-05-06 13:36 50.05809 -96.85720 5755 ft 189 kts 126°
2026-05-06 13:36 50.05004 -96.84106 5514 ft 188 kts 127°
2026-05-06 13:36 50.04204 -96.82502 5272 ft 188 kts 127°
2026-05-06 13:36 50.03405 -96.80905 5025 ft 186 kts 127°
2026-05-06 13:37 50.02611 -96.79314 4784 ft 186 kts 127°
2026-05-06 13:37 50.01703 -96.77896 4536 ft 186 kts 149°
2026-05-06 13:37 50.00518 -96.77176 4289 ft 182 kts 174°
2026-05-06 13:37 49.99279 -96.77219 4053 ft 176 kts 198°
2026-05-06 13:38 49.98188 -96.77950 3815 ft 169 kts 221°
2026-05-06 13:38 49.97323 -96.79136 3596 ft 165 kts 230°
2026-05-06 13:38 49.96492 -96.80320 3384 ft 164 kts 229°
2026-05-06 13:38 49.95788 -96.81638 3170 ft 153 kts 249°
2026-05-06 13:39 49.95470 -96.83169 2970 ft 143 kts 267°
2026-05-06 13:39 49.95496 -96.84626 2844 ft 131 kts 285°
2026-05-06 13:39 49.95778 -96.85887 2756 ft 119 kts 301°
2026-05-06 13:39 49.96245 -96.86903 2675 ft 113 kts 315°
2026-05-06 13:40 49.96768 -96.87772 2612 ft 106 kts 314°
2026-05-06 13:40 49.97254 -96.88596 2539 ft 102 kts 314°
2026-05-06 13:40 49.97729 -96.89394 2471 ft 100 kts 314°
2026-05-06 13:40 49.98198 -96.90186 2402 ft 99 kts 314°
2026-05-06 13:41 49.98668 -96.90977 2339 ft 100 kts 314°
2026-05-06 13:41 49.99141 -96.91767 2278 ft 99 kts 314°
2026-05-06 13:41 49.99603 -96.92542 2208 ft 97 kts 314°
2026-05-06 13:41 50.00057 -96.93306 2142 ft 96 kts 314°
2026-05-06 13:42 50.00513 -96.94071 2081 ft 96 kts 314°
2026-05-06 13:42 50.00967 -96.94834 2029 ft 94 kts 314°
2026-05-06 13:42 50.01401 -96.95566 2021 ft 91 kts 314°
2026-05-06 13:42 50.01809 -96.96255 1967 ft 77 kts 314°
2026-05-06 13:43 50.02146 -96.96833 1852 ft 70 kts 314°
2026-05-06 13:43 50.02503 -96.97434 1766 ft 82 kts 315°
2026-05-06 13:43 50.02914 -96.98111 1638 ft 89 kts 315°
2026-05-06 13:43 50.03341 -96.98822 1491 ft 91 kts 315°
2026-05-06 13:44 50.03772 -96.99549 1348 ft 91 kts 315°
2026-05-06 13:44 50.04201 -97.00272 1208 ft 90 kts 314°
2026-05-06 13:44 50.04613 -97.00970 1081 ft 86 kts 314°
2026-05-06 13:44 50.05014 -97.01648 959 ft 84 kts 315°
2026-05-06 13:45 50.05410 -97.02324 828 ft 85 kts 314°
2026-05-06 13:45 50.06001 -97.03306 756 ft 27 kts 308°
2026-05-06 13:45 50.06106 -97.03481 756 ft 18 kts 310°
2026-05-06 13:46 50.06135 -97.03607 756 ft 11 kts 275°
2026-05-06 13:46 50.06128 -97.03740 756 ft 14 kts 234°
2026-05-06 13:46 50.06071 -97.03871 757 ft 15 kts 232°
2026-05-06 13:46 50.06009 -97.03981 755 ft 11 kts 193°
2026-05-06 13:47 50.05917 -97.04001 757 ft 17 kts 189°
2026-05-06 13:47 50.05818 -97.04025 757 ft 10 kts 207°
2026-05-06 13:47 50.05811 -97.04117 755 ft 8 kts 303°
2026-05-06 13:47 50.05839 -97.04113 757 ft 3 kts 43°
2026-05-06 13:48 50.05842 -97.04109 757 ft 0 kts 41°